Regional Weather Roundup
Issued by NWS Midland/Odessa, TX

Home | Current Version | Previous Version | Text Only | Print | Product List | Glossary On
Versions: 1 2 3 4 5 6 7 8 9 10 11 12 13 14 15 16 17 18 19 20 21 22 23 24 25 26 27 28 29 30 31 32 33 34 35 36 37 38 39 40 41 42 43 44 45 46 47 48 49 50
000
ASUS44 KMAF 301710
RWRMAF
MIDLAND AREA WEATHER ROUNDUP
NATIONAL WEATHER SERVICE MIDLAND TX
1200 PM CDT SAT APR 30 2016

...IN SOUTHWEST TEXAS AND SOUTHEAST NEW MEXICO...

CITY           SKY/WX    TMP DP  RH WIND       PRES   REMARKS
ALPINE         SUNNY     72  19  13 W13       29.98F
ANDREWS        FAIR      64  46  51 SE8       29.88F
ARTESIA        SUNNY     66  37  34 SE9       29.85F
BIG SPRING     SUNNY     60  44  55 NE3       29.91S
CARLSBAD       SUNNY     71  31  22 S9G20     29.83F
DRYDEN           N/A     83  25  12 SW13      29.81F
FORT STOCKTON  SUNNY     77  29  17 NW14      29.87F
GUAD PASS      SUNNY     66  27  23 SW26G41   29.90F
HOBBS          SUNNY     64  39  39 VRB3      29.89F
MARFA          SUNNY     67  23  19 SW18      29.96F
MIDLAND AIRPK  SUNNY     67  46  46 SE5       29.88F
MIDLAND INTL   SUNNY     66  44  45 SE7       29.87F
ODESSA         SUNNY     67  44  43 VRB6      29.88F
PECOS          SUNNY     73  31  20 S3        29.85F
PRESIDIO       FAIR      74  23  14 MISG      29.88F
SEMINOLE       SUNNY     63  47  56 SE7       29.89F
SNYDER           N/A     60  44  55 NE5       29.88F
WINK             N/A     72  37  28 MISG      29.84F
$$
...OTHER STATIONS IN TEXAS...

CITY           SKY/WX    TMP DP  RH WIND       PRES   REMARKS
ABILENE        SUNNY     63  50  62 N10       29.86F
AMARILLO       CLOUDY    51  38  60 NW6       29.91S
AUSTIN         PTSUNNY   76  65  68 N10       29.78R
BROWNSVILLE    CLOUDY    82  79  90 NE7       29.67F FOG
CORPUS CHRISTI PTSUNNY   89  68  49 NE8       29.68S
DALLAS FTW     CLOUDY    66  57  72 NW12      29.80R
DEL RIO        SUNNY     84  37  18 VRB5      29.78S
EL PASO        MOSUNNY   68  29  23 VRB7      29.87F
HOUSTON INT    MOSUNNY   78  63  59 E10G18    29.73F
LUBBOCK        MOSUNNY   60  39  45 S7        29.89S
SAN ANGELO     SUNNY     68  50  52 N6        29.85F
SAN ANTONIO    PTSUNNY   79  62  56 N12       29.78R
WACO           PTSUNNY   69  60  73 N13       29.80S
WICHITA FALLS  NOT AVBL
$$
...OTHER LOCATIONS IN NEW MEXICO...

CITY           SKY/WX    TMP DP  RH WIND       PRES   REMARKS
ALAMAGORDO     SUNNY     64  27  24 W12G20    29.88F
ALBUQUERQUE    PTSUNNY   56  36  47 VRB5      29.88F
CANNON AFB     NOT AVBL
CLOVIS         SUNNY     54  37  54 CALM      29.91S
HOLLOMAN AFB   SUNNY     67  27  22 SW9       29.86F
ROSWELL        SUNNY     68  32  26 SE8       29.83F
RUIDOSO          N/A     54  19  26 N5        29.92F
SANTA FE       CLOUDY    50  33  52 SW10      29.89R
TRUTH OR CONSE SUNNY     63  30  28 SW9       29.86F
TUCUMCARI      CLOUDY    51  38  60 NE8       29.89F
$$




USA.gov is the U.S. government's official web portal to all federal, state and local government web resources and services.